TimeEST,TemperatureF,Dew PointF,Humidity,Sea Level PressureIn,VisibilityMPH,Wind Direction,Wind SpeedMPH,Gust SpeedMPH,PrecipitationIn,Events,Conditions,WindDirDegrees,DateUTC
12:53 AM,3.0,-4.0,73,30.47,10.0,South,6.9,-,N/A,,Clear,180,2014-02-12 05:53:00
1:53 AM,1.9,-4.0,76,30.44,10.0,South,8.1,-,N/A,,Clear,170,2014-02-12 06:53:00
2:53 AM,1.9,-5.1,72,30.43,10.0,South,6.9,-,N/A,,Clear,180,2014-02-12 07:53:00
3:53 AM,-0.0,-5.1,79,30.42,10.0,South,4.6,-,N/A,,Clear,170,2014-02-12 08:53:00
4:53 AM,-0.9,-5.1,83,30.42,10.0,Calm,Calm,-,N/A,,Clear,0,2014-02-12 09:53:00
5:53 AM,-2.0,-6.0,83,30.42,10.0,SSE,4.6,-,N/A,,Clear,160,2014-02-12 10:53:00
6:53 AM,-2.0,-6.0,83,30.41,9.0,South,5.8,-,N/A,,Clear,170,2014-02-12 11:53:00
7:53 AM,-0.9,-5.1,83,30.38,8.0,SE,5.8,-,N/A,,Clear,130,2014-02-12 12:53:00
8:42 AM,-0.4,-2.2,92,30.31,4.0,Calm,Calm,-,N/A,,Partly Cloudy,0,2014-02-12 13:42:00
8:53 AM,1.0,-2.9,83,30.38,7.0,South,5.8,-,N/A,,Clear,190,2014-02-12 13:53:00
9:53 AM,5.0,1.0,84,30.36,10.0,South,10.4,-,N/A,,Clear,170,2014-02-12 14:53:00
10:53 AM,10.9,1.9,67,30.34,10.0,South,6.9,-,N/A,,Clear,170,2014-02-12 15:53:00
11:53 AM,15.1,1.9,56,30.31,10.0,South,8.1,-,N/A,,Clear,170,2014-02-12 16:53:00
12:53 PM,18.0,1.9,50,30.26,10.0,South,5.8,-,N/A,,Clear,170,2014-02-12 17:53:00
1:53 PM,21.0,3.9,48,30.22,10.0,South,4.6,-,N/A,,Partly Cloudy,180,2014-02-12 18:53:00
2:53 PM,21.9,3.0,44,30.18,10.0,South,8.1,-,N/A,,Scattered Clouds,190,2014-02-12 19:53:00
3:53 PM,23.0,3.0,42,30.17,10.0,Variable,6.9,-,N/A,,Mostly Cloudy,0,2014-02-12 20:53:00
4:53 PM,21.9,3.0,44,30.17,10.0,SSW,8.1,-,N/A,,Overcast,210,2014-02-12 21:53:00
5:53 PM,21.9,5.0,48,30.16,10.0,South,5.8,-,N/A,,Overcast,190,2014-02-12 22:53:00
6:53 PM,21.9,3.9,46,30.16,10.0,SSW,4.6,-,N/A,,Overcast,210,2014-02-12 23:53:00
7:53 PM,19.9,3.9,50,30.17,10.0,SW,4.6,-,N/A,,Overcast,220,2014-02-13 00:53:00
8:53 PM,21.0,6.1,53,30.17,10.0,South,6.9,-,N/A,,Overcast,190,2014-02-13 01:53:00
9:53 PM,19.9,7.0,57,30.14,10.0,South,8.1,-,N/A,,Overcast,180,2014-02-13 02:53:00
10:53 PM,19.9,6.1,55,30.11,10.0,South,5.8,-,N/A,,Overcast,180,2014-02-13 03:53:00
11:53 PM,19.9,6.1,55,30.09,10.0,SE,4.6,-,N/A,,Overcast,140,2014-02-13 04:53:00